FW1555 Weather Reports


time (UTC)temp
C
wind
direction
speed
KPH
gust
KPH
rain 1hr
cm
rain 24hr
cm
rain mn
cm
humidity
%
barometer
mb
20260504223100 22 234 3.2 22.5 0.00 0.00 0.00 38 1007.8
20260504221548 22 241 8.0 22.5 0.00 0.00 0.00 37 1007.7
20260504220051 22 0 4.8 24.1 0.00 0.00 0.00 37 1008.0
20260504214548 22 254 6.4 22.5 0.00 0.00 0.00 38 1008.0
20260504213047 22 0 6.4 19.3 0.00 0.00 0.00 36 1008.2
20260504211633 22 220 3.2 24.1 0.00 0.00 0.00 38 1008.2
20260504210054 22 237 8.0 22.5 0.00 0.00 0.00 37 1008.4
20260504204550 21 274 6.4 32.2 0.00 0.00 0.00 36 1008.2
20260504203057 22 220 6.4 30.6 0.00 0.00 0.00 37 1008.2
20260504201557 22 200 9.7 32.2 0.00 0.00 0.00 36 1008.4
20260504200047 22 274 11.3 25.7 0.00 0.00 0.00 37 1008.7
20260504194551 22 275 8.0 24.1 0.00 0.00 0.00 37 1008.8
20260504193044 22 263 9.7 17.7 0.00 0.00 0.00 39 1009.0
20260504191606 22 279 9.7 19.3 0.00 0.00 0.00 38 1009.1
20260504190104 21 271 12.9 25.7 0.00 0.00 0.00 37 1009.2
20260504184552 21 282 8.0 22.5 0.00 0.00 0.00 39 1009.4
20260504183045 21 259 4.8 22.5 0.00 0.00 0.00 40 1009.6
20260504181558 21 0 1.6 17.7 0.00 0.00 0.00 40 1009.6
20260504180052 20 273 12.9 24.1 0.00 0.00 0.00 38 1009.9
20260504174553 20 265 6.4 27.4 0.00 0.00 0.00 39 1010.0
20260504173055 20 148 6.4 19.3 0.00 0.00 0.00 39 1010.2
20260504171551 20 257 9.7 22.5 0.00 0.00 0.00 40 1010.3
20260504081548 7 0 0.0 4.8 0.00 0.00 0.00 67 1012.5
20260504044547 8 0 0.0 3.2 0.00 0.00 0.00 60 1011.9
20260504043048 8 0 0.0 3.2 0.00 0.00 0.00 59 1011.7
20260504041547 8 261 0.0 4.8 0.00 0.00 0.00 60 1011.7
20260504040107 8 0 0.0 1.6 0.00 0.00 0.00 62 1011.6
20260504034550 7 0 0.0 0.0 0.00 0.00 0.00 64 1011.6
20260504033045 8 0 0.0 0.0 0.00 0.00 0.00 62 1011.7
20260504031556 7 0 0.0 0.0 0.00 0.00 0.00 63 1011.6
20260504030044 8 0 0.0 0.0 0.00 0.00 0.00 61 1011.7
20260504024544 8 0 0.0 0.0 0.00 0.00 0.00 60 1011.6
20260504023045 8 0 0.0 0.0 0.00 0.00 0.00 59 1011.7
20260504021550 9 0 0.0 0.0 0.00 0.00 0.00 57 1011.7
20260504014547 10 0 0.0 0.0 0.00 0.00 0.00 51 1011.5
20260504013048 11 0 0.0 0.0 0.00 0.00 0.00 48 1011.4
20260504011549 12 0 0.0 0.0 0.00 0.00 0.00 46 1011.4
20260504010053 12 0 0.0 0.0 0.00 0.00 0.00 45 1011.1
20260504004549 12 0 0.0 3.2 0.00 0.00 0.00 43 1011.0
20260504003051 12 267 0.0 8.0 0.00 0.00 0.00 41 1010.8
20260504001552 13 0 0.0 11.3 0.00 0.00 0.00 40 1010.5
20260504000050 13 0 0.0 6.4 0.00 0.00 0.00 39 1010.3
20260503234601 13 0 0.0 4.8 0.00 0.00 0.00 39 1010.1
20260503233051 13 0 1.6 11.3 0.00 0.00 0.00 37 1009.9
20260503231548 14 242 1.6 14.5 0.00 0.00 0.00 36 1009.8
20260503230051 15 267 0.0 16.1 0.00 0.00 0.00 35 1009.7
20260503224554 15 275 1.6 22.5 0.00 0.00 0.00 33 1009.6